Home > Time Zones > World Clock > Weather > Spain > Ibiza > Past weeks

Flag for Spain Weather past 2 weeks in Ibiza, Ibiza, Spain

Now
84 °F

Passing clouds.


Feels Like: 85 °F
Forecast: 74 / 85 °F
Wind: 7 mph from Southwest

Location: Ibiza / Es Codola

Current Time: Jul 30, 2014 at 3:54:13 PM

Latest Report: Jul 30, 2014 at 3:30 PM


Visibility: N/A

Pressure: 29.95 "Hg

Humidity: 48%

Dew point: 63 °F

Location of IbizaLocation

Historic Weather in Ibiza — Graph

°F

Ibiza temperature yesterday

Maximum temperature yesterday: 86 °F (at 3:30 PM)
Minimum temperature yesterday: 75 °F (at 3:00 AM)
Average temperature yesterday: 79 °F

Past Weeks' High & Low Weather Summary

 TemperatureHumidityPressure
High90 °F (Jul 20, 1:30 PM)94% (Jul 23, 4:30 AM)30.12 "Hg (Jul 23, 4:30 AM)
Low66 °F (Jul 22, 4:30 AM)24% (Jul 20, 1:30 PM)29.80 "Hg (Jul 20, 4:30 AM)
Average79 °F70%29.95 "Hg
* Reported Jul 15 2:00 PM — Jul 30 2:30 PM, Ibiza, Weather by CustomWeather, © 2014

Note: Actual official high and low records may vary slightly from our data, if they occured in-between our weather recording intervals... More about our weather records

Advertising

Ibiza weather history for previous 24 hours

 ConditionsComfort  
Time TempWeatherWind HumidityBarometerVisibility
2:30 PM
Jul 30
82 °FPassing clouds.9 mph55%29.95 "HgN/A
2:00 PM82 °FPassing clouds.9 mph58%29.95 "HgN/A
1:30 PM81 °FPassing clouds.9 mph62%29.95 "HgN/A
1:00 PM81 °FPassing clouds.10 mph62%29.98 "HgN/A
12:30 PM81 °FPassing clouds.9 mph62%29.98 "HgN/A
12:00 PM79 °FScattered clouds.9 mph61%29.98 "HgN/A
11:30 AM79 °FPassing clouds.9 mph65%29.98 "HgN/A
11:00 AM79 °FPassing clouds.8 mph65%29.98 "HgN/A
10:30 AM79 °FPassing clouds.8 mph65%29.98 "HgN/A
10:00 AM77 °FPassing clouds.7 mph69%29.98 "HgN/A
9:30 AM77 °FPassing clouds.5 mph65%29.98 "HgN/A
9:00 AM77 °FPassing clouds.5 mph69%29.98 "HgN/A
8:30 AM75 °FPassing clouds.No wind74%29.95 "HgN/A
8:00 AM73 °FPassing clouds.1 mph78%29.95 "HgN/A
7:30 AM70 °FPassing clouds.2 mph83%29.95 "HgN/A
7:00 AM70 °FPassing clouds.2 mph83%29.95 "HgN/A
6:30 AM70 °FPassing clouds.3 mph83%29.95 "HgN/A
6:00 AM68 °FPassing clouds.1 mph88%29.95 "HgN/A
5:30 AM70 °FPassing clouds.2 mph83%29.95 "HgN/A
5:00 AM70 °FPassing clouds.3 mph83%29.95 "HgN/A
4:30 AM70 °FPassing clouds.1 mph83%29.95 "HgN/A
4:00 AM70 °FPassing clouds.2 mph83%29.95 "HgN/A
3:30 AM70 °FPassing clouds.3 mph83%29.95 "HgN/A
3:00 AM70 °FPassing clouds.2 mph83%29.98 "HgN/A
2:30 AM72 °FPassing clouds.1 mph78%29.98 "HgN/A
2:00 AM73 °FPassing clouds.2 mph74%29.98 "HgN/A
1:30 AM73 °FPassing clouds.2 mph78%29.98 "HgN/A
1:00 AM75 °FPassing clouds.5 mph74%29.98 "HgN/A
12:30 AM75 °FPassing clouds.5 mph74%29.98 "HgN/A
12:00 AM75 °FPassing clouds.5 mph74%29.98 "HgN/A
11:30 PM
Jul 29
75 °FPassing clouds.3 mph74%29.98 "HgN/A
11:00 PM75 °FPassing clouds.3 mph74%29.95 "HgN/A
10:30 PM75 °FPassing clouds.3 mph74%29.95 "HgN/A
10:00 PM75 °FScattered clouds.5 mph74%29.95 "HgN/A
9:30 PM75 °FPassing clouds.7 mph74%29.92 "HgN/A
9:00 PM77 °FPassing clouds.6 mph65%29.92 "HgN/A
8:30 PM77 °FPassing clouds.8 mph69%29.92 "HgN/A
8:00 PM77 °FPassing clouds.10 mph69%29.92 "HgN/A
7:30 PM79 °FPassing clouds.12 mph65%29.89 "HgN/A
7:00 PM79 °FPassing clouds.12 mph65%29.89 "HgN/A
6:30 PM81 °FPassing clouds.14 mph62%29.89 "HgN/A
6:00 PM82 °FPassing clouds.13 mph51%29.89 "HgN/A
5:30 PM82 °FPassing clouds.12 mph32%29.89 "HgN/A
5:00 PM84 °FPassing clouds.12 mph29%29.89 "HgN/A
4:30 PM82 °FPassing clouds.13 mph45%29.89 "HgN/A
4:00 PM84 °FPassing clouds.9 mph45%29.89 "HgN/A
3:30 PM86 °FPassing clouds.10 mph35%29.89 "HgN/A
3:00 PM84 °FPassing clouds.8 mph35%29.89 "HgN/A
Weather by CustomWeather, © 2014

See weather overviewHow to use our weather pages